Date,TemperatureHighF,TemperatureAvgF,TemperatureLowF,DewpointHighF,DewpointAvgF,DewpointLowF,HumidityHigh,HumidityAvg,HumidityLow,PressureMaxIn,PressureMinIn,WindSpeedMaxMPH,WindSpeedAvgMPH,GustSpeedMaxMPH,PrecipitationSumIn
2013-2-1,40.0,32.6,27.0,31.0,10.9,1.0,80,41,25,0.00,40.00,17,8,28,0.01
2013-2-2,39.0,30.8,19.0,22.0,10.1,6.0,77,44,25,0.00,40.00,8,3,12,0.00
2013-2-3,46.0,38.4,32.0,31.0,24.9,16.0,88,61,35,0.00,40.00,10,4,17,0.01
2013-2-4,45.0,37.0,27.0,24.0,18.5,14.0,74,48,31,0.00,40.00,9,3,13,0.01
2013-2-5,58.0,46.4,39.0,36.0,29.7,24.0,87,54,34,0.00,40.00,10,4,16,0.00
2013-2-6,57.0,43.6,33.0,36.0,29.8,22.0,94,63,26,0.00,40.00,10,3,12,0.00
2013-2-7,49.0,40.1,33.0,41.0,34.0,28.0,98,80,53,0.00,40.00,7,3,10,1.43
2013-2-8,55.0,43.2,37.0,42.0,36.4,25.0,99,80,46,0.00,40.00,13,7,22,2.95
2013-2-9,50.0,39.4,29.0,27.0,19.8,11.0,83,48,21,0.00,40.00,12,5,22,0.01
2013-2-10,51.0,38.4,26.0,35.0,22.7,17.0,90,57,26,0.00,40.00,4,1,7,0.05
2013-2-11,61.0,50.8,41.0,59.0,48.3,35.0,97,91,78,0.00,40.00,11,3,15,0.27
2013-2-12,59.0,51.9,42.0,50.0,32.2,21.0,83,50,24,0.00,40.00,9,4,14,0.00
2013-2-13,52.0,45.1,42.0,44.0,42.2,29.0,97,90,41,0.00,40.00,9,2,15,0.54
2013-2-14,52.0,41.5,33.0,36.0,30.7,26.0,91,68,37,0.00,40.00,7,3,11,0.01
2013-2-15,62.0,44.1,30.0,39.0,31.2,24.0,99,68,24,0.00,40.00,9,3,15,0.00
2013-2-16,46.0,35.7,31.0,37.0,33.4,27.0,98,90,58,0.00,40.00,9,4,15,1.59
2013-2-17,34.0,29.0,23.0,28.0,11.8,2.0,91,51,25,0.00,40.00,15,8,22,1.22
2013-2-18,51.0,35.3,20.0,20.0,15.2,8.0,81,47,24,0.00,40.00,6,2,10,0.00
2013-2-19,49.0,41.9,35.0,46.0,34.6,20.0,94,76,48,0.00,40.00,11,5,17,0.01
2013-2-20,51.0,40.7,30.0,34.0,15.1,4.0,76,38,14,0.00,40.00,11,6,17,0.00
2013-2-21,50.0,39.5,28.0,28.0,17.7,13.0,66,42,23,0.00,40.00,10,-11,16,0.00
2013-2-22,42.0,37.6,33.0,35.0,25.7,17.0,96,64,43,0.00,40.00,6,2,9,0.59
2013-2-23,42.0,37.7,36.0,40.0,37.4,35.0,98,95,92,0.00,40.00,7,2,10,0.94
2013-2-24,60.0,47.7,39.0,42.0,33.0,20.0,98,64,21,0.00,40.00,9,4,15,0.17
2013-2-25,44.0,36.6,31.0,27.0,23.6,18.0,86,61,37,0.00,40.00,9,2,12,0.16
2013-2-26,53.0,41.6,31.0,52.0,38.5,26.0,97,89,72,0.00,40.00,6,3,13,1.30
2013-2-27,58.0,47.6,40.0,46.0,37.9,31.0,98,73,37,0.00,40.00,10,-9,17,0.32
2013-2-28,49.0,43.7,36.0,38.0,27.5,21.0,79,54,33,0.00,40.00,13,5,19,0.01